Weather History for KBHK - October, 2013

Change the Weather History Date:

Monday, October 21, 2013

  Actual Average Record
Temperature  
Mean Temperature 42 °F -  
Max Temperature 50 °F 64 °F 81 °F (2003)
Min Temperature 35 °F 44 °F 19 °F (2002)
Degree Days  
Heating Degree Days 22    
Moisture  
Dew Point 38 °F    
Average Humidity 81    
Maximum Humidity 97    
Minimum Humidity 62    
Precipitation  
Precipitation 0.08 in - - ()
Sea Level Pressure  
Sea Level Pressure 29.98 in    
Wind  
Wind Speed 9 mph (West)    
Max Wind Speed 18 mph    
Max Gust Speed 25 mph    
Visibility 10 miles    
Events Rain    
Averages and records for this station are not official NWS values.
T = Trace of Precipitation, MM = Missing Value Source: NWS Daily Summary

Daily Weather History Graph

Daily Weather History Graph

Search for Another Location

Airport or City:

Trip Planner

Search our weather history database for the weather conditions in past years. The results will help you decide how hot, cold, wet, or windy it might be!

Date:

Astronomy

Oct. 21, 2013 Rise Set
Actual Time 7:23 AM MDT 5:59 PM MDT
Civil Twilight 6:52 AM MDT 6:30 PM MDT
Nautical Twilight 6:17 AM MDT 7:05 PM MDT
Astronomical Twilight 5:42 AM MDT 7:39 PM MDT
Moon 7:45 PM MDT (10/21) 10:08 AM MDT (10/21)
Length of Visible Light 11h 37m
Length of Day
10h 36m
Waning Gibbous, 92% of the Moon is Illuminated
Oct 21
Waning Gibbous
Oct 26
Last Quarter
Nov 3
New
Nov 9
First Quarter
Nov 17
Full

Hourly Weather History & Observations

Time (MDT) Temp. Windchill Dew Point Humidity Pressure Visibility Wind Dir Wind Speed Gust Speed Precip Events Conditions
12:51 AM 36.0 °F 32.1 °F 32.0 °F 86% 30.06 in 10.0 mi WSW 4.6 mph - 0.00 in Rain Light Rain
1:51 AM 35.1 °F - 30.9 °F 85% 30.05 in 10.0 mi Calm Calm - 0.00 in   Mostly Cloudy
2:51 AM 35.1 °F 31.0 °F 30.9 °F 85% 30.04 in 10.0 mi SSW 4.6 mph - 0.00 in Rain Light Rain
3:51 AM 36.0 °F - 33.1 °F 89% 30.03 in 10.0 mi Calm Calm - 0.00 in   Overcast
4:51 AM 37.9 °F 35.5 °F 35.1 °F 89% 30.00 in 10.0 mi SSW 3.5 mph - 0.00 in   Overcast
5:51 AM 39.0 °F 33.4 °F 35.1 °F 86% 29.99 in 10.0 mi West 8.1 mph - 0.01 in Rain Light Rain
6:51 AM 39.9 °F 32.9 °F 36.0 °F 86% 29.96 in 10.0 mi WSW 11.5 mph - 0.00 in Rain Light Rain
7:51 AM 41.0 °F 34.3 °F 36.0 °F 82% 29.96 in 10.0 mi West 11.5 mph - 0.00 in   Overcast
8:51 AM 42.1 °F 34.9 °F 37.0 °F 82% 29.97 in 10.0 mi West 13.8 mph - N/A   Overcast
9:51 AM 45.0 °F 38.2 °F 37.9 °F 76% 29.98 in 10.0 mi WNW 15.0 mph 24.2 mph N/A   Mostly Cloudy
10:51 AM 46.0 °F 39.3 °F 37.9 °F 73% 29.99 in 10.0 mi NW 16.1 mph 21.9 mph N/A   Overcast
11:51 AM 48.0 °F - 37.9 °F 68% 29.98 in 10.0 mi WNW 17.3 mph 25.3 mph N/A   Mostly Cloudy
11:58 AM 48.2 °F - 37.4 °F 66% 29.94 in 10.0 mi WNW 17.3 mph 23.0 mph N/A   Mostly Cloudy
12:51 PM 48.9 °F - 37.9 °F 66% 29.96 in 10.0 mi West 16.1 mph 24.2 mph N/A   Mostly Cloudy
1:10 PM 50.0 °F - 37.4 °F 62% 29.92 in 10.0 mi WNW 13.8 mph 21.9 mph N/A   Overcast
1:51 PM 48.9 °F - 39.0 °F 69% 29.94 in 10.0 mi West 17.3 mph 25.3 mph 0.00 in Rain Light Rain
2:51 PM 46.9 °F - 42.1 °F 83% 29.95 in 9.0 mi WNW 15.0 mph 21.9 mph 0.02 in Rain Light Rain
3:12 PM 46.4 °F 39.2 °F 42.8 °F 87% 29.91 in 8.0 mi WNW 18.4 mph 24.2 mph 0.02 in Rain Light Rain
3:45 PM 46.4 °F 39.8 °F 44.6 °F 93% 29.91 in 9.0 mi West 16.1 mph 25.3 mph 0.02 in Rain Light Rain
3:51 PM 46.0 °F 40.6 °F 45.0 °F 96% 29.95 in 10.0 mi West 11.5 mph - 0.03 in Rain Light Rain
4:51 PM 46.9 °F - - N/A% 29.93 in 10.0 mi West 13.8 mph - 0.00 in   Overcast
5:51 PM 46.9 °F - - N/A% 29.95 in 10.0 mi WNW 11.5 mph - 0.00 in   Overcast
6:51 PM 46.0 °F 40.6 °F - N/A% 29.96 in 10.0 mi WNW 11.5 mph - N/A   Partly Cloudy
7:51 PM 46.9 °F - 46.0 °F 97% 29.98 in 10.0 mi WNW 13.8 mph - N/A   Partly Cloudy
8:51 PM 46.9 °F - 41.0 °F 80% 30.00 in 10.0 mi WNW 13.8 mph - N/A   Clear
9:51 PM 45.0 °F 39.7 °F 39.9 °F 82% 30.00 in 10.0 mi WNW 10.4 mph - N/A   Overcast
10:51 PM 44.1 °F 38.6 °F 39.9 °F 85% 30.00 in 10.0 mi West 10.4 mph - N/A   Overcast
11:51 PM 44.1 °F 37.4 °F 39.0 °F 82% 30.02 in 9.0 mi WNW 13.8 mph - 0.02 in Rain Light Rain